Location: Unspecified
(50.7693°N, 0.0000°E)
Time: 00:59:46
(UTC+00:00)

Vanguard 1 - Pass Details

Date: 19 June 2019
Orbit: 653 x 3830 km, 34.3° (Epoch: 22 July)

Event Time Altitude Azimuth Distance (km) Brightness Sun altitude
Exits shadow 02:29:54 - 202° (SSW) 6,071 13.4 -8.9°
Reaches altitude 10° 02:31:02 10° 200° (SSW) 5,830 13.4 -8.8°
Maximum altitude 02:41:37 21° 160° (SSE) 3,972 12.8 -7.8°
Drops below altitude 10° 02:49:03 10° 117° (ESE) 3,957 13.3 -7.1°
Sets 02:52:37 0° 101° (E) 4,507 13.9 -6.8°
